TimeEDT,TemperatureF,Dew PointF,Humidity,Sea Level PressureIn,VisibilityMPH,Wind Direction,Wind SpeedMPH,Gust SpeedMPH,PrecipitationIn,Events,Conditions,WindDirDegrees,DateUTC
12:01 AM,69.8,69.8,100,29.85,7.0,WSW,6.9,-,N/A,,Overcast,240,2013-06-28 04:01:00
12:28 AM,69.8,69.8,100,29.84,6.0,WSW,6.9,-,N/A,,Mostly Cloudy,240,2013-06-28 04:28:00
12:51 AM,69.1,68.0,96,29.75,6.0,WSW,6.9,-,N/A,,Clear,250,2013-06-28 04:51:00
1:51 AM,69.1,68.0,96,29.74,6.0,WSW,6.9,-,N/A,,Partly Cloudy,240,2013-06-28 05:51:00
2:51 AM,68.0,68.0,100,29.72,5.0,SW,5.8,-,N/A,,Scattered Clouds,230,2013-06-28 06:51:00
3:28 AM,68.0,68.0,100,29.81,5.0,WSW,6.9,-,N/A,,Scattered Clouds,240,2013-06-28 07:28:00
3:51 AM,69.1,68.0,96,29.71,6.0,WSW,9.2,-,N/A,,Clear,250,2013-06-28 07:51:00
4:16 AM,69.8,68.0,94,29.80,6.0,WSW,9.2,-,N/A,,Partly Cloudy,240,2013-06-28 08:16:00
4:51 AM,69.1,68.0,96,29.72,7.0,SW,8.1,-,N/A,,Mostly Cloudy,230,2013-06-28 08:51:00
5:06 AM,69.8,68.0,94,29.81,7.0,SW,9.2,-,N/A,,Overcast,220,2013-06-28 09:06:00
5:39 AM,69.8,68.0,94,29.80,6.0,SW,9.2,-,N/A,,Mostly Cloudy,230,2013-06-28 09:39:00
5:49 AM,69.8,68.0,94,29.80,7.0,SW,8.1,-,N/A,,Mostly Cloudy,230,2013-06-28 09:49:00
5:51 AM,69.1,68.0,96,29.70,7.0,WSW,8.1,-,N/A,,Mostly Cloudy,240,2013-06-28 09:51:00
6:04 AM,69.8,68.0,94,29.79,7.0,WSW,8.1,-,N/A,,Mostly Cloudy,240,2013-06-28 10:04:00
6:51 AM,69.1,68.0,96,29.70,5.0,WSW,6.9,-,N/A,,Scattered Clouds,250,2013-06-28 10:51:00
7:51 AM,70.0,69.1,97,29.69,6.0,WSW,5.8,-,N/A,,Scattered Clouds,250,2013-06-28 11:51:00
7:59 AM,71.6,69.8,94,29.79,6.0,WSW,5.8,-,N/A,,Mostly Cloudy,240,2013-06-28 11:59:00
8:24 AM,71.6,68.0,88,29.78,7.0,SW,6.9,-,N/A,,Mostly Cloudy,230,2013-06-28 12:24:00
8:51 AM,72.0,68.0,87,29.69,9.0,WSW,9.2,-,N/A,,Mostly Cloudy,250,2013-06-28 12:51:00
9:15 AM,73.4,68.0,83,29.78,10.0,WSW,9.2,16.1,N/A,,Mostly Cloudy,250,2013-06-28 13:15:00
9:51 AM,73.9,68.0,82,29.68,10.0,West,10.4,-,N/A,,Mostly Cloudy,260,2013-06-28 13:51:00
10:15 AM,75.2,66.2,73,29.77,10.0,West,10.4,19.6,N/A,,Mostly Cloudy,260,2013-06-28 14:15:00
10:51 AM,75.9,64.0,67,29.67,10.0,West,17.3,21.9,N/A,,Overcast,260,2013-06-28 14:51:00
11:51 AM,78.1,64.9,64,29.65,10.0,West,15.0,24.2,N/A,,Scattered Clouds,270,2013-06-28 15:51:00
12:51 PM,80.1,64.0,58,29.65,10.0,WSW,18.4,24.2,N/A,,Scattered Clouds,240,2013-06-28 16:51:00
1:51 PM,79.0,60.1,52,29.64,10.0,WNW,15.0,24.2,N/A,,Scattered Clouds,300,2013-06-28 17:51:00
2:51 PM,80.1,59.0,48,29.63,10.0,West,17.3,25.3,N/A,,Partly Cloudy,270,2013-06-28 18:51:00
3:51 PM,81.0,60.1,49,29.59,10.0,West,10.4,17.3,N/A,,Scattered Clouds,260,2013-06-28 19:51:00
4:51 PM,80.1,60.1,50,29.57,10.0,West,13.8,23.0,N/A,,Mostly Cloudy,260,2013-06-28 20:51:00
5:51 PM,79.0,62.1,56,29.57,10.0,WNW,9.2,-,N/A,,Mostly Cloudy,290,2013-06-28 21:51:00
6:51 PM,77.0,60.1,56,29.57,10.0,West,11.5,-,N/A,,Mostly Cloudy,260,2013-06-28 22:51:00
7:51 PM,75.0,60.1,60,29.60,10.0,WNW,9.2,-,N/A,,Overcast,300,2013-06-28 23:51:00
8:51 PM,71.1,61.0,70,29.61,10.0,West,5.8,-,N/A,,Clear,270,2013-06-29 00:51:00
9:51 PM,66.0,62.1,87,29.62,10.0,SW,5.8,-,N/A,,Clear,220,2013-06-29 01:51:00
10:51 PM,66.0,62.1,87,29.61,10.0,SW,3.5,-,N/A,,Clear,220,2013-06-29 02:51:00
11:51 PM,66.0,62.1,87,29.62,10.0,North,10.4,-,N/A,,Mostly Cloudy,10,2013-06-29 03:51:00